Weather reports worldwide

Advertisment
St. Mary's, United Kingdom (3803): temperature & dewpoint: 22.02.2017 14:00:00 - 28.02.2017 14:00:00 (GMT)St. Mary's, United Kingdom (3803): temperature -20cm: 22.02.2017 14:00:00 - 28.02.2017 14:00:00 (GMT)St. Mary's, United Kingdom (3803): wind speed & gusts: 22.02.2017 14:00:00 - 28.02.2017 14:00:00 (GMT)St. Mary's, United Kingdom (3803): wind direction: 22.02.2017 14:00:00 - 28.02.2017 14:00:00 (GMT)St. Mary's, United Kingdom (3803): reduced air pressure: 22.02.2017 14:00:00 - 28.02.2017 14:00:00 (GMT)St. Mary's, United Kingdom (3803): visibility: 22.02.2017 14:00:00 - 28.02.2017 14:00:00 (GMT)St. Mary's, United Kingdom (3803): precipitation: 22.02.2017 14:00:00 - 28.02.2017 14:00:00 (GMT)
Date & Time tt [°C] td [°C] tt -20cm [°C] ff [km/h] ff [kn] fx [km/h] fx [kn] dd ppp [hPa] vv [km] rr [mm]
28.02.2017 14:00:00 9,8 5,0 - 44 24 83 45 W 996,7 10 0,2
28.02.2017 13:00:00 9,2 6,0 - 54 29 76 41 W 996,3 10 0,0
28.02.2017 12:00:00 9,9 2,7 - 44 24 61 33 W 996,3 10 0,0
28.02.2017 11:00:00 9,1 4,6 - 44 24 63 34 WNW 996,1 10 0,0
28.02.2017 10:00:00 8,0 2,0 - 39 21 57 31 WNW 995,5 10 0,0
28.02.2017 09:00:00 7,1 0,8 8,0 39 21 59 32 NW 994,5 10 0,0
28.02.2017 08:00:00 6,7 1,8 - 34 18 57 31 NW 993,0 10 0,0
28.02.2017 07:00:00 6,2 1,2 - 39 21 54 29 NW 991,4 40 0,6
28.02.2017 06:00:00 4,7 2,1 - 29 16 55 30 NNW 990,1 35 0,0
28.02.2017 05:00:00 5,1 2,3 - 24 13 67 36 NW 989,0 40 0,2
28.02.2017 04:00:00 4,9 2,7 - 21 11 59 32 NW 988,2 45 0,6
28.02.2017 03:00:00 5,6 2,4 - 26 14 - - W 987,9 45 0,0
28.02.2017 02:00:00 5,9 1,4 - 28 15 50 27 W 988,1 50 0,0
28.02.2017 01:00:00 6,8 2,2 - 31 17 54 29 WSW 988,1 20 0,0
28.02.2017 00:00:00 6,7 2,3 - 39 21 67 36 WSW 988,7 23 0,0
27.02.2017 23:00:00 5,8 2,8 - 42 23 67 36 W 989,3 24 1,6
27.02.2017 22:00:00 6,5 1,2 - 48 26 72 39 W 989,3 35 0,0
27.02.2017 21:00:00 6,1 2,7 - 52 28 80 43 W 989,1 8 0,0
27.02.2017 20:00:00 6,4 2,5 - 54 29 89 48 W 988,4 19 0,0
27.02.2017 19:00:00 6,0 2,6 - 54 29 87 47 WSW 987,8 26 0,0
27.02.2017 18:00:00 6,2 2,5 - 52 28 80 43 W 987,8 24 0,2
27.02.2017 17:00:00 5,9 3,6 - 48 26 78 42 W 987,9 10 0,4
27.02.2017 16:00:00 5,8 2,1 - 42 23 74 40 W 988,4 10 0,0
27.02.2017 15:00:00 6,1 1,7 - 46 25 65 35 W 987,9 10 0,0
27.02.2017 14:00:00 6,5 2,0 - 48 26 72 39 WSW 988,1 10 0,0
27.02.2017 13:00:00 7,1 2,3 - 44 24 63 34 WSW 988,4 28 0,0
27.02.2017 12:00:00 6,9 2,0 - 39 21 65 35 WSW 988,4 10 0,0
27.02.2017 11:00:00 7,3 2,1 - 44 24 68 37 WSW 989,0 10 0,0
27.02.2017 10:00:00 5,7 2,9 - 34 18 76 41 WSW 989,5 10 0,2
27.02.2017 09:00:00 5,4 3,4 9,2 35 19 59 32 WSW 989,8 10 0,4
27.02.2017 08:00:00 4,2 3,1 - 54 29 70 38 W 990,4 5 1,8
27.02.2017 07:00:00 7,7 4,2 - 48 26 68 37 WSW 990,1 21 0,0
27.02.2017 06:00:00 6,4 4,2 - 35 19 80 43 SW 991,1 29 1,6
27.02.2017 05:00:00 9,0 4,5 - 52 28 70 38 SW 992,4 19 0,0
27.02.2017 04:00:00 8,5 5,6 - 41 22 57 31 SW 993,8 15 0,0
27.02.2017 03:00:00 8,1 5,8 - 39 21 65 35 SW 995,5 18 0,0
27.02.2017 02:00:00 8,4 5,4 - 50 27 68 37 SW 996,9 16 0,2
27.02.2017 01:00:00 9,1 6,1 - 44 24 59 32 SW 997,9 16 0,0
27.02.2017 00:00:00 9,0 6,3 - 37 20 54 29 SW 998,8 16 0,0
26.02.2017 23:00:00 9,2 6,8 - 35 19 52 28 SW 999,7 15 0,2
26.02.2017 22:00:00 9,5 6,8 - 31 17 52 28 SW 1000,6 4,7 0,2
26.02.2017 21:00:00 9,8 7,5 - 28 15 - - SW 1001,5 10 0,0
26.02.2017 20:00:00 9,8 6,7 - 28 15 48 26 SW 1002,3 10 0,0
26.02.2017 19:00:00 10,0 7,3 - 34 18 - - SW 1002,6 9 0,0
26.02.2017 18:00:00 9,9 8,1 - 35 19 52 28 SW 1002,7 8 0,2
26.02.2017 17:00:00 10,5 9,1 - 35 19 59 32 WSW 1002,8 6 0,0
26.02.2017 16:00:00 10,8 9,9 - 52 28 81 44 SW 1002,8 6 0,2
26.02.2017 15:00:00 11,5 9,2 - 65 35 81 44 SW 1002,7 8 0,0
26.02.2017 14:00:00 11,4 8,8 - 63 34 81 44 SSW 1003,5 9 0,0
26.02.2017 13:00:00 11,5 8,7 - 55 30 78 42 SSW 1004,5 10 0,0
26.02.2017 12:00:00 11,5 8,7 - 54 29 74 40 SSW 1005,4 12 0,0
26.02.2017 11:00:00 10,4 8,5 - 52 28 72 39 SSW 1006,8 10 0,0
26.02.2017 10:00:00 10,6 7,5 - 52 28 68 37 SW 1007,6 15 0,0
26.02.2017 09:00:00 10,2 7,9 9,5 50 27 65 35 SW 1008,1 18 0,0
26.02.2017 08:00:00 10,1 7,5 - 48 26 61 33 SW 1008,2 16 0,0
26.02.2017 07:00:00 9,7 7,9 - 37 20 52 28 SW 1008,4 13 0,0
26.02.2017 06:00:00 9,7 7,2 - 37 20 54 29 SW 1009,1 18 0,0
26.02.2017 05:00:00 9,3 7,0 - 37 20 61 33 WSW 1009,7 16 0,0
26.02.2017 04:00:00 9,7 7,6 - 31 17 46 25 WSW 1009,9 22 0,0
26.02.2017 03:00:00 9,3 8,1 - 29 16 - - WSW 1010,1 22 0,0
26.02.2017 02:00:00 9,1 8,9 - 21 11 - - WSW 1010,0 20 0,0
26.02.2017 01:00:00 9,3 9,1 - 22 12 - - W 1010,2 26 0,0
26.02.2017 00:00:00 10,3 10,1 - 22 12 - - W 1010,2 8 0,4
25.02.2017 23:00:00 10,8 10,6 - 28 15 - - WSW 1009,8 9 0,0
25.02.2017 22:00:00 10,8 10,7 - 29 16 48 26 SW 1009,6 7 0,0
25.02.2017 21:00:00 10,9 10,8 - 35 19 54 29 SW 1009,4 9 0,2
25.02.2017 20:00:00 10,8 10,7 - 41 22 57 31 SW 1009,2 3,4 0,0
25.02.2017 19:00:00 10,7 10,6 - 48 26 61 33 SW 1009,3 3,8 0,2
25.02.2017 18:00:00 10,4 10,2 - 48 26 65 35 SSW 1009,3 4,4 0,2
25.02.2017 17:00:00 10,1 9,8 - 46 25 65 35 SSW 1009,3 2,5 0,2
25.02.2017 16:00:00 10,1 9,5 - 50 27 70 38 SSW 1009,5 6 0,6
25.02.2017 15:00:00 10,0 9,1 - 54 29 72 39 SSW 1010,2 4,0 0,4
25.02.2017 14:00:00 10,6 8,8 - 46 25 70 38 SSW 1010,8 9 0,0
25.02.2017 13:00:00 10,3 8,4 - 52 28 70 38 SSW 1011,9 10 0,0
25.02.2017 12:00:00 10,5 7,8 - 54 29 68 37 SSW 1012,6 10 0,0
25.02.2017 11:00:00 10,4 7,8 - 54 29 68 37 SSW 1012,9 10 0,0
25.02.2017 10:00:00 10,2 7,6 - 50 27 68 37 SW 1013,0 10 0,0
25.02.2017 09:00:00 10,3 7,3 9,2 52 28 70 38 SW 1013,2 10 0,0
25.02.2017 08:00:00 10,2 6,9 - 50 27 65 35 SW 1013,4 10 0,0
25.02.2017 07:00:00 10,1 6,9 - 44 24 67 36 SW 1013,4 17 0,0
25.02.2017 06:00:00 9,9 6,5 - 48 26 67 36 SSW 1013,6 17 0,0
25.02.2017 05:00:00 9,7 6,6 - 50 27 65 35 SW 1014,7 18 0,0
25.02.2017 04:00:00 9,8 6,4 - 48 26 65 35 SW 1015,2 21 0,0
25.02.2017 03:00:00 10,0 6,0 - 48 26 68 37 SW 1016,0 20 0,0
25.02.2017 02:00:00 10,0 5,7 - 50 27 65 35 SSW 1016,8 23 0,0
25.02.2017 01:00:00 9,9 6,0 - 41 22 61 33 SSW 1017,1 30 0,0
25.02.2017 00:00:00 9,9 5,8 - 39 21 55 30 SSW 1017,7 35 0,0
24.02.2017 23:00:00 10,0 5,7 - 37 20 54 29 SSW 1018,2 45 0,0
24.02.2017 22:00:00 9,8 5,1 - 35 19 46 25 SSW 1018,8 50 0,0
24.02.2017 21:00:00 9,6 5,7 - 24 13 - - SW 1019,4 40 0,0
24.02.2017 20:00:00 9,4 5,5 - 24 13 - - SW 1019,7 50 0,0
24.02.2017 19:00:00 9,0 5,6 - 22 12 - - SW 1020,1 25 0,0
24.02.2017 18:00:00 9,4 6,1 - 24 13 - - SW 1020,3 27 0,0
24.02.2017 17:00:00 9,4 5,9 - 22 12 - - SW 1020,3 10 0,0
24.02.2017 16:00:00 9,5 6,1 - 21 11 - - WSW 1020,7 10 0,0
24.02.2017 15:00:00 9,4 5,8 - 26 14 - - W 1020,8 10 0,0
24.02.2017 14:00:00 10,0 5,6 - 15 8 - - WSW 1021,1 10 0,0
24.02.2017 13:00:00 10,1 5,2 - 16 9 - - W 1021,3 16 0,0
24.02.2017 12:00:00 10,0 4,9 - 16 9 - - W 1021,8 10 0,0
24.02.2017 11:00:00 9,3 5,2 - 9 5 - - NW 1021,6 19 0,0
24.02.2017 10:00:00 9,0 5,0 - 18 10 - - W 1021,5 10 0,0
24.02.2017 09:00:00 8,8 3,2 9,0 18 10 - - NW 1020,9 10 0,0
24.02.2017 08:00:00 7,7 3,3 - 13 7 - - NW 1020,4 25 0,0
24.02.2017 07:00:00 7,5 2,5 - 15 8 - - NW 1019,6 35 0,0
24.02.2017 06:00:00 8,0 2,6 - 18 10 - - NW 1019,5 35 0,0
24.02.2017 05:00:00 8,0 2,7 - 18 10 - - NW 1019,0 35 0,0
24.02.2017 04:00:00 7,6 2,5 - 16 9 - - NW 1018,7 30 0,0
24.02.2017 03:00:00 8,0 2,8 - 24 13 - - WNW 1018,5 26 0,0
24.02.2017 02:00:00 7,6 1,5 - 24 13 - - NNW 1018,1 40 0,0
24.02.2017 01:00:00 6,9 2,8 - 18 10 46 25 NW 1017,8 26 0,0
24.02.2017 00:00:00 7,7 2,2 - 28 15 - - NW 1016,9 35 0,0
23.02.2017 23:00:00 8,0 1,2 - 29 16 - - NW 1016,5 35 0,0
23.02.2017 22:00:00 8,3 2,2 - 31 17 48 26 NW 1016,3 30 0,0
23.02.2017 21:00:00 8,5 3,9 - 34 18 - - WNW 1014,9 17 0,0
23.02.2017 20:00:00 8,6 1,6 - 31 17 52 28 NW 1014,0 23 0,0
23.02.2017 19:00:00 8,2 2,9 - 29 16 55 30 NW 1013,0 19 0,0
23.02.2017 18:00:00 8,4 3,2 - 39 21 61 33 NW 1012,3 23 0,0
23.02.2017 17:00:00 9,0 3,4 - 44 24 63 34 WNW 1011,4 10 0,0
23.02.2017 16:00:00 9,2 2,5 - 50 27 72 39 WNW 1010,6 16 0,0
23.02.2017 15:00:00 9,3 4,1 - 44 24 74 40 WNW 1009,9 10 0,0
23.02.2017 14:00:00 9,9 3,9 - 46 25 70 38 WNW 1009,5 10 0,0
23.02.2017 13:00:00 9,6 3,3 - 52 28 70 38 WNW 1009,1 15 0,0
23.02.2017 12:00:00 9,8 4,2 - 46 25 65 35 WNW 1008,5 10 0,0
23.02.2017 11:00:00 9,9 4,7 - 48 26 72 39 WNW 1008,0 10 0,0
23.02.2017 10:00:00 9,7 4,4 - 48 26 76 41 W 1006,8 10 0,0
23.02.2017 09:00:00 9,4 4,5 10,2 48 26 80 43 W 1005,8 10 0,0
23.02.2017 08:00:00 9,7 5,0 - 52 28 78 42 W 1004,6 10 0,0
23.02.2017 07:00:00 9,8 5,9 - 46 25 80 43 W 1003,6 10 0,0
23.02.2017 06:00:00 10,4 7,6 - 48 26 94 51 W 1002,8 10 0,2
23.02.2017 05:00:00 11,0 10,3 - 54 29 78 42 WSW 1001,7 6 0,0
23.02.2017 04:00:00 11,3 9,8 - 61 33 78 42 WSW 1002,5 11 0,0
23.02.2017 03:00:00 10,9 10,0 - 54 29 70 38 SW 1003,9 10 0,0
23.02.2017 02:00:00 10,5 9,9 - 50 27 80 43 WSW 1005,3 11 0,0
23.02.2017 01:00:00 10,5 10,4 - 44 24 63 34 SW 1006,5 1,6 0,4
23.02.2017 00:00:00 10,7 10,4 - 46 25 67 36 SW 1007,8 4,3 0,0
22.02.2017 23:00:00 10,6 10,4 - 50 27 68 37 SW 1008,8 6 0,0
22.02.2017 22:00:00 10,6 10,4 - 50 27 65 35 SW 1009,8 7 0,0
22.02.2017 21:00:00 10,6 10,4 - 46 25 65 35 SW 1010,7 7 0,0
22.02.2017 20:00:00 10,5 10,3 - 42 23 55 30 SW 1011,3 5 0,0
22.02.2017 19:00:00 10,5 10,3 - 39 21 54 29 SW 1012,1 4,3 0,0
22.02.2017 18:00:00 10,6 10,2 - 37 20 55 30 WSW 1012,6 4,9 0,0
22.02.2017 17:00:00 11,0 9,8 - 31 17 55 30 WSW 1013,2 8 0,0
22.02.2017 16:00:00 11,5 9,4 - 29 16 55 30 WSW 1013,6 9 0,0
22.02.2017 15:00:00 11,5 9,5 - 39 21 57 31 WSW 1014,1 10 0,0
22.02.2017 14:00:00 11,6 9,7 - 35 19 54 29 WSW 1014,9 10 0,0

tt = temperature
td = dewpoint
tt -20cm = temperature -20cm
ff = wind speed
fx = gusts
dd = wind direction
ppp = reduced air pressure
vv = visibility
rr = precipitation

Next stations